Volver al catálogo

DELTA 1 DEB

ActivoSSO
NORAD 8685·DEBRIS·🇺🇸 United States

Lanzado Jan 22, 1975 desde Vandenberg Space Force Base

Loading…

Próximos Pases (próximas 24 horas)

TLE

ActualizadoSource: Space-Track

Época: Sep 14, 2026, 11:41 UTC

1 08685U 75004M   26257.48687824  .00000234  00000-0  66066-4 0  9999
2 08685  97.9561 332.2205 0046556  11.6812 348.5454 14.53234282722051

Sigue DELTA 1 DEB en tiempo real con AllMySat

Download on the App Store